| time (UTC) | temp C | wind direction | speed KPH | gust KPH | rain 1hr cm | rain 24hr cm | rain mn cm | humidity % | barometer mb |
| 20260904095735 | 15 | 100 | 9.7 | 12.9 | 0.00 | 0.00 | 0.00 | 94 | 1013.7 |
| 20260904095230 | 15 | 76 | 8.0 | 9.7 | 0.00 | 0.00 | 0.00 | 94 | 1013.9 |
| 20260904094725 | 15 | 89 | 8.0 | 9.7 | 0.00 | 0.00 | 0.00 | 94 | 1013.7 |
| 20260904094225 | 15 | 86 | 12.9 | 14.5 | 0.00 | 0.00 | 0.00 | 93 | 1013.6 |
| 20260904093721 | 16 | 83 | 8.0 | 11.3 | 0.00 | 0.00 | 0.00 | 93 | 1013.5 |
| 20260904093220 | 16 | 75 | 9.7 | 12.9 | 0.00 | 0.00 | 0.00 | 93 | 1013.2 |
| 20260904092716 | 16 | 91 | 9.7 | 11.3 | 0.00 | 0.00 | 0.00 | 93 | 1013.4 |
| 20260904092213 | 16 | 104 | 6.4 | 9.7 | 0.00 | 0.00 | 0.00 | 93 | 1013.2 |
| 20260904091708 | 16 | 78 | 11.3 | 12.9 | 0.00 | 0.00 | 0.00 | 93 | 1013.0 |
| 20260904091203 | 16 | 87 | 9.7 | 11.3 | 0.00 | 0.00 | 0.00 | 93 | 1013.1 |
| 20260904090659 | 16 | 74 | 11.3 | 14.5 | 0.00 | 0.00 | 0.00 | 93 | 1013.0 |
| 20260904090155 | 16 | 55 | 11.3 | 12.9 | 0.00 | 0.00 | 0.00 | 93 | 1012.9 |
| 20260904085650 | 16 | 73 | 12.9 | 14.5 | 0.00 | 0.00 | 0.00 | 93 | 1012.7 |
| 20260904085149 | 16 | 66 | 8.0 | 9.7 | 0.00 | 0.00 | 0.00 | 93 | 1012.6 |
| 20260904084644 | 16 | 90 | 11.3 | 11.3 | 0.00 | 0.00 | 0.00 | 93 | 1012.4 |
| 20260904084141 | 16 | 65 | 8.0 | 11.3 | 0.00 | 0.00 | 0.00 | 93 | 1012.9 |
| 20260904083637 | 16 | 75 | 8.0 | 11.3 | 0.00 | 0.00 | 0.00 | 93 | 1012.9 |
| 20260904083133 | 16 | 82 | 8.0 | 11.3 | 0.00 | 0.00 | 0.00 | 93 | 1012.6 |
| 20260904082627 | 16 | 56 | 8.0 | 9.7 | 0.00 | 0.00 | 0.00 | 93 | 1012.3 |
| 20260904082123 | 16 | 82 | 8.0 | 11.3 | 0.00 | 0.00 | 0.00 | 93 | 1012.2 |
| 20260904081618 | 16 | 49 | 8.0 | 12.9 | 0.00 | 0.00 | 0.00 | 93 | 1012.4 |
| 20260904081113 | 16 | 59 | 6.4 | 9.7 | 0.00 | 0.00 | 0.00 | 93 | 1012.5 |
| 20260904080609 | 16 | 54 | 6.4 | 8.0 | 0.00 | 0.00 | 0.00 | 93 | 1012.3 |
| 20260904080105 | 16 | 54 | 8.0 | 11.3 | 0.00 | 0.00 | 0.00 | 93 | 1012.6 |
| 20260904075556 | 16 | 59 | 4.8 | 4.8 | 0.00 | 0.00 | 0.00 | 93 | 1012.7 |
| 20260904075055 | 16 | 75 | 4.8 | 8.0 | 0.00 | 0.00 | 0.00 | 93 | 1012.7 |
| 20260904074555 | 16 | 62 | 3.2 | 3.2 | 0.00 | 0.00 | 0.00 | 93 | 1012.9 |
| 20260904074050 | 16 | 76 | 4.8 | 4.8 | 0.00 | 0.00 | 0.00 | 93 | 1013.0 |
| 20260904073550 | 16 | 66 | 4.8 | 4.8 | 0.00 | 0.00 | 0.00 | 93 | 1012.9 |
| 20260904073047 | 16 | 48 | 4.8 | 8.0 | 0.00 | 0.00 | 0.00 | 93 | 1012.9 |
| 20260904072542 | 16 | 55 | 4.8 | 4.8 | 0.00 | 0.00 | 0.00 | 92 | 1012.6 |
| 20260904072037 | 16 | 65 | 3.2 | 3.2 | 0.00 | 0.00 | 0.00 | 92 | 1012.6 |
| 20260904071532 | 16 | 82 | 4.8 | 4.8 | 0.00 | 0.00 | 0.00 | 92 | 1012.7 |
| 20260904071027 | 16 | 78 | 8.0 | 9.7 | 0.00 | 0.00 | 0.00 | 92 | 1012.7 |
| 20260904070526 | 16 | 131 | 8.0 | 9.7 | 0.00 | 0.00 | 0.00 | 92 | 1012.5 |
| 20260904070021 | 17 | 124 | 4.8 | 4.8 | 0.00 | 0.00 | 0.00 | 92 | 1012.5 |
| 20260904065516 | 17 | 97 | 4.8 | 4.8 | 0.00 | 0.00 | 0.00 | 92 | 1012.9 |
| 20260904065012 | 17 | 93 | 3.2 | 3.2 | 0.00 | 0.00 | 0.00 | 92 | 1012.6 |
| 20260904064508 | 17 | 104 | 3.2 | 3.2 | 0.00 | 0.00 | 0.00 | 92 | 1012.5 |
| 20260904064003 | 17 | 67 | 3.2 | 3.2 | 0.00 | 0.00 | 0.00 | 92 | 1012.5 |
| 20260904063459 | 17 | 89 | 3.2 | 3.2 | 0.00 | 0.00 | 0.00 | 92 | 1012.3 |
| 20260904062954 | 17 | 65 | 3.2 | 3.2 | 0.00 | 0.00 | 0.00 | 92 | 1012.3 |
| 20260904062450 | 17 | 78 | 4.8 | 4.8 | 0.00 | 0.00 | 0.00 | 91 | 1012.2 |
| 20260904061946 | 17 | 74 | 6.4 | 8.0 | 0.00 | 0.00 | 0.00 | 91 | 1012.4 |
| 20260904061442 | 17 | 78 | 8.0 | 9.7 | 0.00 | 0.00 | 0.00 | 91 | 1012.3 |
| 20260904060938 | 17 | 77 | 4.8 | 4.8 | 0.00 | 0.00 | 0.00 | 91 | 1012.1 |
| 20260904060434 | 17 | 82 | 6.4 | 9.7 | 0.00 | 0.00 | 0.00 | 91 | 1011.9 |
| 20260904055929 | 17 | 59 | 8.0 | 9.7 | 0.00 | 0.00 | 0.00 | 91 | 1012.3 |
| 20260904055424 | 17 | 56 | 8.0 | 9.7 | 0.00 | 0.00 | 0.00 | 91 | 1012.1 |
| 20260904054920 | 17 | 57 | 6.4 | 8.0 | 0.00 | 0.00 | 0.00 | 91 | 1012.2 |
| 20260904054410 | 17 | 75 | 8.0 | 9.7 | 0.00 | 0.00 | 0.00 | 91 | 1012.3 |
| 20260904053906 | 17 | 52 | 4.8 | 4.8 | 0.00 | 0.00 | 0.00 | 91 | 1012.3 |
| 20260904053404 | 17 | 56 | 4.8 | 4.8 | 0.00 | 0.00 | 0.00 | 91 | 1012.1 |
| 20260904052900 | 17 | 57 | 6.4 | 8.0 | 0.00 | 0.00 | 0.00 | 91 | 1012.3 |
| 20260904052356 | 17 | 55 | 4.8 | 4.8 | 0.00 | 0.00 | 0.00 | 91 | 1012.2 |
| 20260904051852 | 18 | 60 | 8.0 | 8.0 | 0.00 | 0.00 | 0.00 | 90 | 1012.2 |
| 20260904051348 | 18 | 57 | 6.4 | 8.0 | 0.00 | 0.00 | 0.00 | 90 | 1012.1 |
| 20260904050842 | 18 | 50 | 4.8 | 4.8 | 0.00 | 0.00 | 0.00 | 90 | 1012.5 |
| 20260904050339 | 18 | 55 | 4.8 | 4.8 | 0.00 | 0.00 | 0.00 | 89 | 1012.4 |
| 20260904045833 | 18 | 58 | 3.2 | 4.8 | 0.00 | 0.00 | 0.00 | 89 | 1012.1 |
| 20260904045328 | 18 | 73 | 4.8 | 4.8 | 0.00 | 0.00 | 0.00 | 89 | 1012.2 |
| 20260904044823 | 18 | 69 | 3.2 | 4.8 | 0.00 | 0.00 | 0.00 | 88 | 1012.2 |
| 20260904044319 | 18 | 73 | 4.8 | 8.0 | 0.00 | 0.00 | 0.00 | 88 | 1011.9 |
| 20260904043815 | 18 | 74 | 4.8 | 4.8 | 0.00 | 0.00 | 0.00 | 89 | 1012.3 |
| 20260904043311 | 18 | 63 | 4.8 | 4.8 | 0.00 | 0.00 | 0.00 | 89 | 1012.1 |
| 20260904042806 | 18 | 70 | 3.2 | 3.2 | 0.00 | 0.00 | 0.00 | 88 | 1011.9 |
| 20260904042306 | 18 | 70 | 3.2 | 3.2 | 0.00 | 0.00 | 0.00 | 88 | 1012.0 |
| 20260904041803 | 18 | 73 | 3.2 | 3.2 | 0.00 | 0.00 | 0.00 | 88 | 1012.2 |
| 20260904041259 | 18 | 66 | 4.8 | 4.8 | 0.00 | 0.00 | 0.00 | 88 | 1011.9 |
| 20260904040754 | 19 | 69 | 3.2 | 3.2 | 0.00 | 0.00 | 0.00 | 88 | 1011.9 |
| 20260904040250 | 19 | 64 | 3.2 | 3.2 | 0.00 | 0.00 | 0.00 | 87 | 1011.9 |
| 20260904035746 | 19 | 58 | 3.2 | 3.2 | 0.00 | 0.00 | 0.00 | 87 | 1012.0 |
| 20260904035241 | 20 | 60 | 3.2 | 3.2 | 0.00 | 0.00 | 0.00 | 86 | 1011.7 |
| 20260904034740 | 20 | 59 | 1.6 | 1.6 | 0.00 | 0.00 | 0.00 | 85 | 1011.5 |
| 20260904034236 | 20 | 37 | 4.8 | 4.8 | 0.00 | 0.00 | 0.00 | 85 | 1011.6 |
| 20260904033731 | 20 | 58 | 3.2 | 3.2 | 0.00 | 0.00 | 0.00 | 85 | 1011.6 |
| 20260904033228 | 20 | 53 | 3.2 | 3.2 | 0.00 | 0.00 | 0.00 | 85 | 1011.5 |
| 20260904032723 | 20 | 52 | 3.2 | 3.2 | 0.00 | 0.00 | 0.00 | 85 | 1011.3 |
| 20260904032222 | 20 | 17 | 3.2 | 3.2 | 0.00 | 0.00 | 0.00 | 86 | 1011.2 |
| 20260904031717 | 20 | 26 | 3.2 | 3.2 | 0.00 | 0.00 | 0.00 | 86 | 1011.3 |
| 20260904031213 | 20 | 30 | 3.2 | 3.2 | 0.00 | 0.00 | 0.00 | 84 | 1011.2 |
| 20260904030708 | 21 | 45 | 1.6 | 1.6 | 0.00 | 0.00 | 0.00 | 82 | 1011.3 |
| 20260904030203 | 21 | 45 | 4.8 | 8.0 | 0.00 | 0.00 | 0.00 | 83 | 1011.3 |
| 20260904025700 | 20 | 45 | 3.2 | 3.2 | 0.00 | 0.00 | 0.00 | 84 | 1011.2 |
| 20260904025154 | 21 | 60 | 4.8 | 4.8 | 0.00 | 0.00 | 0.00 | 83 | 1010.9 |
| 20260904024650 | 21 | 60 | 3.2 | 3.2 | 0.00 | 0.00 | 0.00 | 82 | 1010.9 |
| 20260904024145 | 21 | 46 | 4.8 | 4.8 | 0.00 | 0.00 | 0.00 | 83 | 1010.8 |
| 20260904023641 | 21 | 58 | 3.2 | 3.2 | 0.00 | 0.00 | 0.00 | 84 | 1010.9 |
| 20260904023137 | 21 | 56 | 4.8 | 4.8 | 0.00 | 0.00 | 0.00 | 83 | 1010.9 |
| 20260904022637 | 21 | 46 | 4.8 | 4.8 | 0.00 | 0.00 | 0.00 | 83 | 1010.8 |
| 20260904022134 | 21 | 52 | 3.2 | 3.2 | 0.00 | 0.00 | 0.00 | 84 | 1010.9 |
| 20260904021630 | 21 | 47 | 3.2 | 3.2 | 0.00 | 0.00 | 0.00 | 83 | 1010.7 |
| 20260904021125 | 20 | 35 | 3.2 | 3.2 | 0.00 | 0.00 | 0.00 | 85 | 1010.9 |
| 20260904020620 | 21 | 61 | 3.2 | 3.2 | 0.00 | 0.00 | 0.00 | 85 | 1010.8 |
| 20260904020109 | 21 | 79 | 3.2 | 3.2 | 0.00 | 0.00 | 0.00 | 84 | 1010.9 |
| 20260904015603 | 21 | 52 | 3.2 | 3.2 | 0.00 | 0.00 | 0.00 | 84 | 1010.8 |
| 20260904015102 | 21 | 70 | 3.2 | 3.2 | 0.00 | 0.00 | 0.00 | 83 | 1010.7 |
| 20260904014556 | 21 | 74 | 1.6 | 1.6 | 0.00 | 0.00 | 0.00 | 82 | 1010.5 |
| 20260904014052 | 21 | 60 | 1.6 | 1.6 | 0.00 | 0.00 | 0.00 | 82 | 1010.4 |
| 20260904013548 | 21 | 57 | 1.6 | 3.2 | 0.00 | 0.00 | 0.00 | 83 | 1010.5 |
| 20260904013044 | 21 | 60 | 1.6 | 1.6 | 0.00 | 0.00 | 0.00 | 83 | 1010.2 |
| 20260904012544 | 21 | 57 | 1.6 | 1.6 | 0.00 | 0.00 | 0.00 | 82 | 1010.2 |
| 20260904012038 | 22 | 63 | 3.2 | 3.2 | 0.00 | 0.00 | 0.00 | 81 | 1010.3 |
| 20260904011537 | 22 | 71 | 0.0 | 0.0 | 0.00 | 0.00 | 0.00 | 82 | 1010.1 |
| 20260904011033 | 22 | 72 | 0.0 | 0.0 | 0.00 | 0.00 | 0.00 | 81 | 1010.2 |
| 20260904010529 | 22 | 87 | 0.0 | 0.0 | 0.00 | 0.00 | 0.00 | 80 | 1010.0 |
| 20260904010025 | 23 | 87 | 0.0 | 0.0 | 0.00 | 0.00 | 0.00 | 79 | 1010.1 |
| 20260904005525 | 23 | 86 | 1.6 | 1.6 | 0.00 | 0.00 | 0.00 | 77 | 1009.9 |
| 20260904005021 | 24 | 98 | 0.0 | 0.0 | 0.00 | 0.00 | 0.00 | 76 | 1010.0 |
| 20260904004516 | 24 | 78 | 0.0 | 1.6 | 0.00 | 0.00 | 0.00 | 76 | 1009.7 |
| 20260904004016 | 25 | 103 | 1.6 | 1.6 | 0.00 | 0.00 | 0.00 | 74 | 1010.0 |
| 20260904003513 | 25 | 79 | 0.0 | 0.0 | 0.00 | 0.00 | 0.00 | 74 | 1009.8 |
| 20260904003008 | 25 | 152 | 1.6 | 1.6 | 0.00 | 0.00 | 0.00 | 71 | 1009.7 |
| 20260904002504 | 25 | 80 | 1.6 | 1.6 | 0.00 | 0.00 | 0.00 | 72 | 1010.0 |
| 20260904002003 | 25 | 101 | 0.0 | 0.0 | 0.00 | 0.00 | 0.00 | 70 | 1009.8 |
| 20260904001459 | 25 | 79 | 1.6 | 1.6 | 0.00 | 0.00 | 0.00 | 71 | 1009.8 |
| 20260904000959 | 26 | 115 | 0.0 | 0.0 | 0.00 | 0.00 | 0.00 | 70 | 1009.8 |
| 20260904000458 | 26 | 115 | 0.0 | 0.0 | 0.00 | 0.00 | 0.00 | 71 | 1009.8 |
| 20260903235954 | 26 | 121 | 0.0 | 0.0 | 0.00 | 0.00 | 0.00 | 68 | 1010.0 |
| 20260903235449 | 26 | 120 | 0.0 | 1.6 | 0.00 | 0.00 | 0.00 | 69 | 1009.9 |
| 20260903234943 | 26 | 181 | 1.6 | 1.6 | 0.00 | 0.00 | 0.00 | 69 | 1009.8 |
| 20260903234440 | 25 | 187 | 3.2 | 3.2 | 0.00 | 0.00 | 0.00 | 70 | 1009.9 |
| 20260903233936 | 25 | 141 | 4.8 | 4.8 | 0.00 | 0.00 | 0.00 | 71 | 1009.9 |
| 20260903233431 | 25 | 104 | 3.2 | 3.2 | 0.00 | 0.00 | 0.00 | 71 | 1009.8 |
| 20260903232926 | 25 | 115 | 0.0 | 1.6 | 0.00 | 0.00 | 0.00 | 70 | 1009.6 |
| 20260903232420 | 26 | 132 | 3.2 | 3.2 | 0.00 | 0.00 | 0.00 | 70 | 1009.6 |
| 20260903231915 | 25 | 169 | 4.8 | 8.0 | 0.00 | 0.00 | 0.00 | 70 | 1009.5 |
| 20260903231410 | 25 | 107 | 4.8 | 4.8 | 0.00 | 0.00 | 0.00 | 71 | 1009.5 |
| 20260903230905 | 25 | 150 | 6.4 | 8.0 | 0.00 | 0.00 | 0.00 | 71 | 1009.6 |
| 20260903230400 | 25 | 155 | 4.8 | 4.8 | 0.00 | 0.00 | 0.00 | 72 | 1009.0 |
| 20260903225856 | 25 | 147 | 9.7 | 11.3 | 0.00 | 0.00 | 0.00 | 73 | 1009.0 |
| 20260903225352 | 25 | 102 | 11.3 | 12.9 | 0.00 | 0.00 | 0.00 | 72 | 1009.0 |
| 20260903224847 | 25 | 93 | 4.8 | 4.8 | 0.00 | 0.00 | 0.00 | 72 | 1009.2 |
| 20260903224338 | 25 | 122 | 6.4 | 8.0 | 0.00 | 0.00 | 0.00 | 72 | 1008.9 |
| 20260903223833 | 25 | 61 | 6.4 | 8.0 | 0.00 | 0.00 | 0.00 | 72 | 1009.2 |
| 20260903223332 | 25 | 74 | 4.8 | 4.8 | 0.00 | 0.00 | 0.00 | 72 | 1009.0 |
| 20260903222827 | 25 | 52 | 6.4 | 8.0 | 0.00 | 0.00 | 0.00 | 73 | 1008.9 |
| 20260903222327 | 25 | 68 | 4.8 | 8.0 | 0.00 | 0.00 | 0.00 | 72 | 1008.9 |
| 20260903221821 | 25 | 101 | 6.4 | 8.0 | 0.00 | 0.00 | 0.00 | 73 | 1008.9 |
| 20260903221320 | 25 | 108 | 3.2 | 3.2 | 0.00 | 0.00 | 0.00 | 73 | 1008.9 |
| 20260903220818 | 25 | 107 | 1.6 | 1.6 | 0.00 | 0.00 | 0.00 | 74 | 1008.8 |
| 20260903220312 | 24 | 106 | 4.8 | 4.8 | 0.00 | 0.00 | 0.00 | 74 | 1008.8 |
| 20260903215811 | 25 | 111 | 6.4 | 9.7 | 0.00 | 0.00 | 0.00 | 75 | 1008.8 |
| 20260903215308 | 25 | 39 | 8.0 | 9.7 | 0.00 | 0.00 | 0.00 | 75 | 1008.7 |
| 20260903214805 | 25 | 91 | 3.2 | 3.2 | 0.00 | 0.00 | 0.00 | 76 | 1008.6 |
| 20260903214301 | 25 | 106 | 4.8 | 8.0 | 0.00 | 0.00 | 0.00 | 76 | 1008.7 |
| 20260903213755 | 25 | 78 | 8.0 | 11.3 | 0.00 | 0.00 | 0.00 | 76 | 1008.8 |
| 20260903213251 | 24 | 98 | 6.4 | 8.0 | 0.00 | 0.00 | 0.00 | 76 | 1008.7 |
| 20260903212741 | 25 | 84 | 6.4 | 11.3 | 0.00 | 0.00 | 0.00 | 76 | 1008.8 |
| 20260903212238 | 24 | 104 | 4.8 | 8.0 | 0.00 | 0.00 | 0.00 | 77 | 1008.7 |
| 20260903211736 | 24 | 88 | 6.4 | 8.0 | 0.00 | 0.00 | 0.00 | 77 | 1008.6 |
| 20260903211234 | 23 | 60 | 4.8 | 4.8 | 0.00 | 0.00 | 0.00 | 78 | 1008.6 |
| 20260903210729 | 24 | 31 | 4.8 | 8.0 | 0.00 | 0.00 | 0.00 | 77 | 1008.7 |
| 20260903210225 | 23 | 50 | 6.4 | 9.7 | 0.00 | 0.00 | 0.00 | 79 | 1008.5 |
| 20260903205718 | 23 | 28 | 9.7 | 11.3 | 0.00 | 0.00 | 0.00 | 79 | 1008.6 |
| 20260903205217 | 23 | 62 | 6.4 | 9.7 | 0.00 | 0.00 | 0.00 | 80 | 1008.7 |
| 20260903204713 | 23 | 20 | 6.4 | 8.0 | 0.00 | 0.00 | 0.00 | 79 | 1008.8 |
| 20260903204210 | 23 | 77 | 6.4 | 11.3 | 0.00 | 0.00 | 0.00 | 79 | 1008.7 |
| 20260903203704 | 22 | 80 | 4.8 | 8.0 | 0.00 | 0.00 | 0.00 | 81 | 1008.7 |
| 20260903203200 | 22 | 48 | 9.7 | 9.7 | 0.00 | 0.00 | 0.00 | 82 | 1008.7 |
| 20260903202654 | 22 | 38 | 8.0 | 11.3 | 0.00 | 0.00 | 0.00 | 82 | 1009.0 |
| 20260903202150 | 22 | 58 | 4.8 | 8.0 | 0.00 | 0.00 | 0.00 | 82 | 1009.3 |
| 20260903201643 | 22 | 28 | 4.8 | 4.8 | 0.00 | 0.00 | 0.00 | 82 | 1008.8 |
| 20260903201138 | 22 | 44 | 8.0 | 11.3 | 0.00 | 0.00 | 0.00 | 83 | 1008.7 |
| 20260903200633 | 22 | 27 | 6.4 | 9.7 | 0.00 | 0.00 | 0.00 | 84 | 1008.7 |
| 20260903200129 | 21 | 48 | 6.4 | 9.7 | 0.00 | 0.00 | 0.00 | 83 | 1008.6 |
| 20260903195624 | 21 | 28 | 8.0 | 9.7 | 0.00 | 0.00 | 0.00 | 84 | 1008.8 |
| 20260903195120 | 21 | 46 | 4.8 | 8.0 | 0.00 | 0.00 | 0.00 | 84 | 1008.5 |
| 20260903194614 | 21 | 74 | 3.2 | 4.8 | 0.00 | 0.00 | 0.00 | 84 | 1008.3 |
| 20260903194114 | 21 | 31 | 8.0 | 9.7 | 0.00 | 0.00 | 0.00 | 84 | 1008.1 |
| 20260903193611 | 21 | 48 | 8.0 | 12.9 | 0.00 | 0.00 | 0.00 | 84 | 1008.3 |
| 20260903193106 | 21 | 40 | 4.8 | 9.7 | 0.00 | 0.00 | 0.00 | 85 | 1008.7 |
| 20260903192603 | 21 | 32 | 8.0 | 12.9 | 0.00 | 0.00 | 0.00 | 85 | 1008.4 |
| 20260903192103 | 21 | 30 | 8.0 | 9.7 | 0.00 | 0.00 | 0.00 | 84 | 1008.7 |
| 20260903191559 | 21 | 35 | 3.2 | 4.8 | 0.00 | 0.00 | 0.00 | 86 | 1008.6 |
| 20260903191054 | 21 | 31 | 6.4 | 8.0 | 0.00 | 0.00 | 0.00 | 86 | 1008.9 |
| 20260903190553 | 21 | 27 | 4.8 | 4.8 | 0.00 | 0.00 | 0.00 | 86 | 1008.9 |
| 20260903190053 | 21 | 326 | 6.4 | 8.0 | 0.00 | 0.00 | 0.00 | 85 | 1009.3 |
| 20260903185548 | 21 | 299 | 4.8 | 4.8 | 0.00 | 0.00 | 0.00 | 85 | 1009.0 |
| 20260903185044 | 21 | 31 | 1.6 | 3.2 | 0.00 | 0.00 | 0.00 | 86 | 1008.8 |
| 20260903184540 | 21 | 43 | 4.8 | 8.0 | 0.00 | 0.00 | 0.00 | 86 | 1008.7 |
| 20260903184035 | 21 | 26 | 3.2 | 3.2 | 0.00 | 0.00 | 0.00 | 86 | 1008.7 |
| 20260903183534 | 21 | 35 | 1.6 | 1.6 | 0.00 | 0.00 | 0.00 | 85 | 1008.7 |
| 20260903183029 | 21 | 45 | 3.2 | 3.2 | 0.00 | 0.00 | 0.00 | 86 | 1008.9 |
| 20260903182527 | 21 | 124 | 4.8 | 4.8 | 0.00 | 0.00 | 0.00 | 86 | 1008.8 |
| 20260903182024 | 21 | 42 | 4.8 | 4.8 | 0.00 | 0.00 | 0.00 | 86 | 1008.4 |
| 20260903181517 | 21 | 55 | 8.0 | 9.7 | 0.00 | 0.00 | 0.00 | 86 | 1008.2 |
| 20260903181017 | 21 | 49 | 8.0 | 9.7 | 0.00 | 0.00 | 0.00 | 87 | 1008.2 |
| 20260903180513 | 20 | 60 | 4.8 | 4.8 | 0.00 | 0.00 | 0.00 | 88 | 1008.3 |
| 20260903180007 | 20 | 52 | 4.8 | 8.0 | 0.00 | 0.00 | 0.00 | 89 | 1008.1 |
| 20260903175506 | 20 | 48 | 8.0 | 9.7 | 0.00 | 0.00 | 0.00 | 89 | 1008.2 |
| 20260903175005 | 20 | 74 | 9.7 | 11.3 | 0.00 | 0.00 | 0.00 | 90 | 1008.2 |
| 20260903174500 | 19 | 44 | 6.4 | 8.0 | 0.00 | 0.00 | 0.00 | 91 | 1008.3 |
| 20260903174000 | 18 | 32 | 8.0 | 9.7 | 0.00 | 0.00 | 0.00 | 92 | 1008.0 |
| 20260903173455 | 18 | 39 | 9.7 | 12.9 | 0.00 | 0.00 | 0.00 | 92 | 1008.1 |
| 20260903172950 | 18 | 47 | 12.9 | 16.1 | 0.00 | 0.00 | 0.00 | 93 | 1007.8 |
| 20260903172445 | 18 | 37 | 11.3 | 17.7 | 0.00 | 0.00 | 0.00 | 93 | 1007.8 |
| 20260903171941 | 18 | 47 | 12.9 | 16.1 | 0.00 | 0.00 | 0.00 | 93 | 1007.5 |
| 20260903171431 | 18 | 13 | 8.0 | 11.3 | 0.00 | 0.00 | 0.00 | 92 | 1007.8 |
| 20260903170931 | 18 | 24 | 9.7 | 12.9 | 0.00 | 0.00 | 0.00 | 91 | 1007.8 |
| 20260903170425 | 19 | 12 | 9.7 | 11.3 | 0.00 | 0.00 | 0.00 | 90 | 1007.8 |
| 20260903165924 | 20 | 22 | 6.4 | 9.7 | 0.00 | 0.00 | 0.00 | 90 | 1007.4 |
| 20260903165418 | 20 | 43 | 3.2 | 3.2 | 0.00 | 0.00 | 0.00 | 90 | 1007.5 |
| 20260903164913 | 20 | 356 | 3.2 | 3.2 | 0.00 | 0.00 | 0.00 | 90 | 1007.5 |
| 20260903164408 | 20 | 65 | 3.2 | 3.2 | 0.00 | 0.00 | 0.00 | 90 | 1007.6 |
| 20260903163908 | 20 | 33 | 3.2 | 3.2 | 0.00 | 0.00 | 0.00 | 89 | 1007.5 |
| 20260903163404 | 20 | 22 | 4.8 | 4.8 | 0.00 | 0.00 | 0.00 | 89 | 1007.5 |
| 20260903162900 | 20 | 32 | 3.2 | 3.2 | 0.00 | 0.00 | 0.00 | 89 | 1007.6 |
| 20260903162356 | 20 | 60 | 3.2 | 3.2 | 0.00 | 0.00 | 0.00 | 89 | 1007.4 |
| 20260903161852 | 20 | 43 | 4.8 | 4.8 | 0.00 | 0.00 | 0.00 | 89 | 1007.1 |
| 20260903161347 | 20 | 63 | 4.8 | 4.8 | 0.00 | 0.00 | 0.00 | 89 | 1006.8 |
| 20260903160843 | 20 | 60 | 8.0 | 9.7 | 0.00 | 0.00 | 0.00 | 89 | 1006.8 |
| 20260903160341 | 20 | 55 | 4.8 | 4.8 | 0.00 | 0.00 | 0.00 | 89 | 1006.8 |
| 20260903155840 | 20 | 51 | 4.8 | 8.0 | 0.00 | 0.00 | 0.00 | 89 | 1006.8 |
| 20260903155335 | 20 | 33 | 8.0 | 9.7 | 0.00 | 0.00 | 0.00 | 89 | 1006.6 |
| 20260903154831 | 20 | 25 | 11.3 | 12.9 | 0.00 | 0.00 | 0.00 | 89 | 1006.8 |
| 20260903154327 | 20 | 75 | 4.8 | 4.8 | 0.00 | 0.00 | 0.00 | 89 | 1006.6 |
| 20260903153822 | 20 | 59 | 6.4 | 8.0 | 0.00 | 0.00 | 0.00 | 89 | 1006.4 |
| 20260903153318 | 20 | 97 | 4.8 | 8.0 | 0.00 | 0.00 | 0.00 | 89 | 1006.3 |
| 20260903152815 | 20 | 69 | 8.0 | 9.7 | 0.00 | 0.00 | 0.00 | 89 | 1006.2 |
| 20260903152310 | 19 | 88 | 6.4 | 8.0 | 0.00 | 0.00 | 0.00 | 90 | 1006.2 |
| 20260903151810 | 19 | 62 | 6.4 | 9.7 | 0.00 | 0.00 | 0.00 | 90 | 1006.2 |
| 20260903151305 | 19 | 105 | 8.0 | 8.0 | 0.00 | 0.00 | 0.00 | 90 | 1006.3 |
| 20260903150759 | 19 | 52 | 4.8 | 8.0 | 0.00 | 0.00 | 0.00 | 90 | 1006.4 |
| 20260903150253 | 19 | 74 | 9.7 | 14.5 | 0.00 | 0.00 | 0.00 | 90 | 1006.5 |
| 20260903145750 | 19 | 79 | 8.0 | 11.3 | 0.00 | 0.00 | 0.00 | 90 | 1006.7 |
| 20260903145245 | 18 | 68 | 6.4 | 11.3 | 0.00 | 0.00 | 0.00 | 90 | 1006.7 |
| 20260903144743 | 18 | 71 | 4.8 | 4.8 | 0.00 | 0.00 | 0.00 | 91 | 1006.8 |
| 20260903144239 | 18 | 50 | 12.9 | 14.5 | 0.00 | 0.00 | 0.00 | 90 | 1006.9 |
| 20260903143735 | 18 | 64 | 8.0 | 11.3 | 0.00 | 0.00 | 0.00 | 90 | 1007.0 |
| 20260903143231 | 18 | 53 | 4.8 | 9.7 | 0.00 | 0.00 | 0.00 | 90 | 1007.1 |
| 20260903142727 | 18 | 45 | 9.7 | 11.3 | 0.00 | 0.00 | 0.00 | 90 | 1007.1 |
| 20260903142223 | 18 | 28 | 8.0 | 11.3 | 0.00 | 0.00 | 0.00 | 90 | 1007.2 |
| 20260903141717 | 18 | 56 | 8.0 | 9.7 | 0.00 | 0.00 | 0.00 | 89 | 1007.5 |
| 20260903141213 | 18 | 32 | 4.8 | 4.8 | 0.00 | 0.00 | 0.00 | 89 | 1007.6 |
| 20260903140708 | 18 | 42 | 6.4 | 8.0 | 0.00 | 0.00 | 0.00 | 89 | 1007.8 |
| 20260903140203 | 18 | 62 | 4.8 | 4.8 | 0.00 | 0.00 | 0.00 | 89 | 1007.8 |
| 20260903135659 | 18 | 53 | 3.2 | 3.2 | 0.00 | 0.00 | 0.00 | 89 | 1007.8 |
| 20260903135154 | 18 | 47 | 4.8 | 4.8 | 0.00 | 0.00 | 0.00 | 89 | 1008.0 |
| 20260903134653 | 17 | 13 | 3.2 | 3.2 | 0.00 | 0.00 | 0.00 | 89 | 1008.0 |
| 20260903134149 | 17 | 45 | 3.2 | 3.2 | 0.00 | 0.00 | 0.00 | 89 | 1007.7 |
| 20260903133646 | 17 | 58 | 0.0 | 1.6 | 0.00 | 0.00 | 0.00 | 89 | 1007.6 |
| 20260903133142 | 17 | 86 | 3.2 | 3.2 | 0.00 | 0.00 | 0.00 | 89 | 1007.4 |
| 20260903132636 | 17 | 56 | 3.2 | 3.2 | 0.00 | 0.00 | 0.00 | 89 | 1007.1 |
| 20260903132131 | 17 | 96 | 1.6 | 1.6 | 0.00 | 0.00 | 0.00 | 89 | 1007.5 |
| 20260903131626 | 17 | 155 | 6.4 | 8.0 | 0.00 | 0.00 | 0.00 | 89 | 1007.0 |
| 20260903131125 | 17 | 102 | 9.7 | 12.9 | 0.00 | 0.00 | 0.00 | 89 | 1006.7 |
| 20260903130620 | 17 | 79 | 12.9 | 16.1 | 0.00 | 0.00 | 0.00 | 89 | 1006.6 |
| 20260903130114 | 17 | 74 | 16.1 | 17.7 | 0.00 | 0.00 | 0.00 | 89 | 1006.2 |
| 20260903125613 | 17 | 73 | 17.7 | 20.9 | 0.00 | 0.00 | 0.00 | 89 | 1006.2 |
| 20260903125103 | 17 | 56 | 14.5 | 17.7 | 0.00 | 0.00 | 0.00 | 89 | 1006.1 |
| 20260903124602 | 17 | 84 | 17.7 | 20.9 | 0.00 | 0.00 | 0.00 | 89 | 1006.1 |
| 20260903124057 | 17 | 70 | 14.5 | 17.7 | 0.00 | 0.00 | 0.00 | 89 | 1006.4 |
| 20260903123556 | 17 | 110 | 11.3 | 12.9 | 0.00 | 0.00 | 0.00 | 88 | 1006.2 |
| 20260903123054 | 17 | 96 | 12.9 | 16.1 | 0.00 | 0.00 | 0.00 | 89 | 1006.3 |
| 20260903122549 | 17 | 78 | 14.5 | 17.7 | 0.00 | 0.00 | 0.00 | 88 | 1006.1 |
| 20260903122048 | 17 | 95 | 11.3 | 12.9 | 0.00 | 0.00 | 0.00 | 88 | 1006.4 |
| 20260903121543 | 16 | 126 | 12.9 | 14.5 | 0.00 | 0.00 | 0.00 | 88 | 1006.4 |
| 20260903121039 | 16 | 100 | 11.3 | 16.1 | 0.00 | 0.00 | 0.00 | 88 | 1006.3 |
| 20260903120538 | 16 | 83 | 11.3 | 16.1 | 0.00 | 0.00 | 0.00 | 87 | 1006.3 |
| 20260903120033 | 16 | 114 | 8.0 | 9.7 | 0.00 | 0.00 | 0.00 | 87 | 1006.4 |
| 20260903115531 | 16 | 96 | 9.7 | 12.9 | 0.00 | 0.00 | 0.00 | 87 | 1006.4 |
| 20260903115026 | 16 | 102 | 9.7 | 12.9 | 0.00 | 0.00 | 0.00 | 86 | 1006.3 |
| 20260903114521 | 16 | 78 | 12.9 | 16.1 | 0.00 | 0.00 | 0.00 | 86 | 1006.5 |
| 20260903114017 | 16 | 75 | 9.7 | 12.9 | 0.00 | 0.00 | 0.00 | 86 | 1006.7 |
| 20260903113513 | 16 | 85 | 8.0 | 9.7 | 0.00 | 0.00 | 0.00 | 85 | 1006.8 |
| 20260903113009 | 16 | 87 | 6.4 | 9.7 | 0.00 | 0.00 | 0.00 | 85 | 1007.0 |
| 20260903112503 | 16 | 57 | 6.4 | 8.0 | 0.00 | 0.00 | 0.00 | 85 | 1007.0 |
| 20260903112003 | 16 | 83 | 6.4 | 9.7 | 0.00 | 0.00 | 0.00 | 84 | 1006.8 |
| 20260903111457 | 16 | 86 | 4.8 | 4.8 | 0.00 | 0.00 | 0.00 | 84 | 1006.8 |
| 20260903110954 | 16 | 93 | 4.8 | 4.8 | 0.00 | 0.00 | 0.00 | 84 | 1006.8 |
| 20260903110449 | 16 | 105 | 8.0 | 9.7 | 0.00 | 0.00 | 0.00 | 84 | 1006.5 |
| 20260903105943 | 16 | 66 | 11.3 | 14.5 | 0.00 | 0.00 | 0.00 | 83 | 1006.2 |
| 20260903105439 | 16 | 92 | 8.0 | 9.7 | 0.00 | 0.00 | 0.00 | 83 | 1006.4 |
| 20260903104938 | 16 | 134 | 9.7 | 12.9 | 0.00 | 0.00 | 0.00 | 82 | 1006.5 |
| 20260903104438 | 17 | 108 | 8.0 | 11.3 | 0.00 | 0.00 | 0.00 | 82 | 1006.6 |
| 20260903103935 | 17 | 83 | 14.5 | 16.1 | 0.00 | 0.00 | 0.00 | 82 | 1006.4 |
| 20260903103430 | 16 | 79 | 8.0 | 11.3 | 0.00 | 0.00 | 0.00 | 82 | 1006.7 |
| 20260903102926 | 17 | 98 | 11.3 | 12.9 | 0.00 | 0.00 | 0.00 | 81 | 1006.7 |
| 20260903102421 | 17 | 114 | 11.3 | 12.9 | 0.00 | 0.00 | 0.00 | 80 | 1006.8 |
| 20260903101920 | 17 | 80 | 6.4 | 11.3 | 0.00 | 0.00 | 0.00 | 80 | 1006.7 |
| 20260903101415 | 17 | 73 | 14.5 | 16.1 | 0.00 | 0.00 | 0.00 | 80 | 1006.7 |
| 20260903100910 | 17 | 91 | 9.7 | 12.9 | 0.00 | 0.00 | 0.00 | 80 | 1006.5 |
| 20260903100406 | 17 | 73 | 14.5 | 20.9 | 0.00 | 0.00 | 0.00 | 79 | 1006.7 |
| 20260903095902 | 17 | 90 | 12.9 | 17.7 | 0.00 | 0.00 | 0.00 | 78 | 1006.6 |